Home > Weather > Sultanpur > Past weeks

Flag for India Past Weather in Sultanpur, Uttar Pradesh, India — Yesterday and Last 2 Weeks

Now
81 °F

Partly cloudy.


Feels Like: 89 °F
Forecast: 81 / 92 °F
Wind: No wind

Location: Lucknow / Amausi

Current Time: Jul 24, 2016 at 12:49:02 AM

Latest Report: Jul 24, 2016 at 12:00 AM


Visibility: 2 mi

Pressure: 29.62 "Hg

Humidity: 100%

Dew Point: 81 °F

Location of SultanpurLocation

Past Weather in Sultanpur — Graph

°F

Sultanpur Temperature Yesterday

Maximum temperature yesterday: 93 °F (at 12:30 PM)
Minimum temperature yesterday: 79 °F (at 6:00 PM)
Average temperature yesterday: 85 °F

High & Low Weather Summary for the Past Weeks

 TemperatureHumidityPressure
High99 °F (Jul 14, 3:00 PM)100% (Jul 13, 10:00 PM)29.62 "Hg (Jul 13, 10:00 PM)
Low79 °F (Jul 19, 5:00 AM)46% (Jul 19, 4:00 PM)29.33 "Hg (Jul 9, 4:30 PM)
Average88 °F85%29.49 "Hg
* Reported Jul 8 11:00 PM — Jul 23 11:00 PM, Sultanpur, Weather by CustomWeather, © 2016

Note: Actual official high and low records may vary slightly from our data, if they occured in-between our weather recording intervals... More about our weather records

Advertising

Sultanpur Weather History for the Previous 24 Hours

Scroll right to see more
 ConditionsComfort  
Time TempWeatherWind HumidityBarometerVisibility
11:00 PM
Sat, Jul 23
81 °FPartly cloudy.No wind100%29.62 "Hg2 mi
10:00 PM81 °FMostly cloudy.No wind100%29.62 "Hg1 mi
9:00 PM81 °FLight rain. Mostly cloudy.No wind100%29.59 "Hg1 mi
8:30 PM81 °FLight rain. Mostly cloudy.No wind100%29.59 "Hg1 mi
7:30 PM81 °FLight rain. Mostly cloudy.No wind100%29.59 "Hg1 mi
7:00 PM81 °FLight rain. Broken clouds.No wind100%29.56 "Hg2 mi
6:30 PM79 °FLight rain. More clouds than sun.8 mph100%29.59 "Hg2 mi
6:00 PM79 °FLight rain. More clouds than sun.8 mph100%29.59 "Hg2 mi
5:30 PM81 °FLight rain. More clouds than sun.9 mph70%29.56 "Hg2 mi
5:00 PM91 °FBroken clouds.5 mph75%29.53 "Hg2 mi
4:30 PM93 °FBroken clouds.3 mph71%29.53 "Hg2 mi
3:30 PM91 °FBroken clouds.5 mph80%29.56 "Hg2 mi
3:00 PM90 °FBroken clouds.6 mph79%29.53 "Hg2 mi
2:30 PM88 °FBroken clouds.7 mph84%29.56 "Hg2 mi
2:00 PM90 °FBroken clouds.6 mph79%29.59 "Hg2 mi
1:30 PM93 °FScattered clouds.5 mph71%29.59 "Hg2 mi
1:00 PM93 °FScattered clouds.7 mph71%29.59 "Hg2 mi
12:30 PM93 °FScattered clouds.5 mph75%29.59 "Hg2 mi
12:00 PM91 °FScattered clouds.5 mph75%29.62 "Hg2 mi
11:30 AM90 °FScattered clouds.5 mph79%29.62 "Hg2 mi
11:00 AM90 °FScattered clouds.2 mph79%29.62 "Hg2 mi
10:30 AM90 °FScattered clouds.2 mph84%29.62 "Hg2 mi
10:00 AM88 °FBroken clouds.2 mph84%29.62 "Hg2 mi
9:30 AM86 °FBroken clouds.2 mph89%29.62 "Hg2 mi
9:00 AM84 °FBroken clouds.2 mph94%29.62 "Hg2 mi
8:30 AM82 °FBroken clouds.2 mph100%29.62 "Hg2 mi
8:00 AM82 °FBroken clouds.2 mph100%29.62 "Hg2 mi
7:30 AM82 °FBroken clouds.2 mph100%29.62 "Hg2 mi
7:00 AM82 °FBroken clouds.2 mph100%29.59 "Hg2 mi
6:00 AM81 °FMostly cloudy.No wind100%29.56 "Hg2 mi
5:30 AM81 °FOvercast.No wind100%29.56 "Hg2 mi
5:00 AM81 °FPartly cloudy.No wind100%29.56 "Hg2 mi
4:00 AM81 °FPartly cloudy.No wind100%29.53 "Hg2 mi
3:00 AM81 °FPartly cloudy.No wind100%29.56 "Hg2 mi
1:00 AM82 °FPartly cloudy.No wind94%29.59 "Hg2 mi
12:00 AM82 °FPartly cloudy.No wind94%29.59 "Hg2 mi
Weather by CustomWeather, © 2016

See weather overviewHow to use our weather pages